This demonstration page uses our WeatherBlox Daily Observations layout. Learn more.

Left ArrowRight Arrow

Hourly Observations for February 20, 2016

Temp ( °F °C ) Dew Point ( °F °C ) Humidity (%) Winds ( mph kmh ) Pressure ( in mb ) Visibility ( mi km ) Precip ( " mm )
12:54 am 00:54 Clear 44 6.7 29 -1.7 55 55 SW 5 7 29.91 1013 10 16 0.00 0.00
1:54 am 01:54 Clear 46 7.8 29 -1.7 51 51 W 6 9 29.92 1013 10 16 0.00 0.00
2:54 am 02:54 Clear 39 3.9 28 -2.2 65 65 S 5 7 29.94 1014 10 16 0.00 0.00
3:54 am 03:54 Clear 36 2.2 27 -2.8 70 70 Calm 29.95 1014 10 16 0.00 0.00
4:54 am 04:54 Clear 35 1.7 28 -2.2 76 76 VRB 3 6 29.94 1014 10 16 0.00 0.00
5:54 am 05:54 Clear 30 -1.1 25 -3.9 82 82 NE 5 7 29.97 1015 10 16 0.00 0.00
6:54 am 06:54 Clear 33 0.6 26 -3.3 75 75 Calm 29.98 1015 10 16 0.00 0.00
7:54 am 07:54 Sunny 32 0 26 -3.3 79 79 Calm 29.99 1016 10 16 0.00 0.00
8:54 am 08:54 Sunny 41 5 32 0 70 70 SSE 5 7 29.99 1016 10 16 0.00 0.00
9:54 am 09:54 Sunny 50 10 31 -0.6 48 48 NE 9 15 30.01 1016 10 16 0.00 0.00
10:54 am 10:54 Sunny 54 12.2 34 1.1 47 47 NNE 15 24 30.02 1017 10 16 0.00 0.00
11:54 am 11:54 Sunny 57 13.9 34 1.1 42 42 N 13 20 30.02 1017 10 16 0.00 0.00
12:54 pm 12:54 Sunny 57 13.9 34 1.1 42 42 NNE 16 26 30.01 1016 10 16 0.00 0.00
1:54 pm 13:54 Sunny 58 14.4 37 2.8 46 46 NNE 14 22 30.00 1016 10 16 0.00 0.00
2:54 pm 14:54 Sunny 56 13.3 38 3.3 51 51 NE 14 22 29.99 1016 10 16 0.00 0.00
3:54 pm 15:54 Sunny 54 12.2 37 2.8 53 53 NNE 13 20 30.01 1016 10 16 0.00 0.00
4:54 pm 16:54 Sunny 53 11.7 38 3.3 57 57 NNE 13 20 30.03 1017 10 16 0.00 0.00
5:54 pm 17:54 Sunny 48 8.9 36 2.2 63 63 N 9 15 30.07 1018 10 16 0.00 0.00
6:54 pm 18:54 Clear 44 6.7 36 2.2 73 73 N 9 15 30.07 1018 10 16 0.00 0.00
7:54 pm 19:54 Clear 42 5.6 36 2.2 79 79 NE 7 11 30.06 1018 10 16 0.00 0.00
8:54 pm 20:54 Clear 38 3.3 33 0.6 83 83 NNE 7 11 30.09 1019 10 16 0.00 0.00
9:54 pm 21:54 Clear 42 5.6 36 2.2 79 79 N 12 19 30.13 1020 10 16 0.00 0.00
10:54 pm 22:54 Clear 39 3.9 34 1.1 82 82 N 9 15 30.14 1021 10 16 0.00 0.00
11:54 pm 23:54 Clear 38 3.3 34 1.1 86 86 N 6 9 30.15 1021 10 16 0.00 0.00

Powered by AerisWeather